Chicago Midway, IL

12:40 AM CDT on May 28, 2018 (GMT -0500)
Chicago-Midway

Weather History for KMDW - February, 2013

Change the Weather History Date:

Friday, February 22, 2013

  Actual Average Record
Temperature  
Mean Temperature 30 °F 31 °F  
Max Temperature 35 °F 38 °F 67 °F (2017)
Min Temperature 24 °F 24 °F -7 °F (1963)
Degree Days  
Heating Degree Days 35 34  
Month to date heating degree days 836 816  
Since 1 July heating degree days 3950 4312  
Cooling Degree Days 0 0  
Month to date cooling degree days 0 0  
Year to date cooling degree days 0 0  
Moisture  
Dew Point 24 °F    
Average Humidity 83    
Maximum Humidity 93    
Minimum Humidity 66    
Precipitation  
Precipitation 0.06 in 0.08 in 1.40 in (1990)
Month to date precipitation 1.25 1.43  
Year to date precipitation 3.80 3.49  
Snow  
Snow 0.00 in - - ()
Snow Depth 3.00 in    
Sea Level Pressure  
Sea Level Pressure 29.90 in    
Wind  
Wind Speed 12 mph (SSE)    
Max Wind Speed 22 mph    
Max Gust Speed 28 mph    
Visibility 4 miles    
Events Fog , Snow    
T = Trace of Precipitation, MM = Missing Value Source: NWS Daily Summary

Daily Weather History Graph

Daily Weather History Graph

Search for Another Location

Airport or City:

Astronomy

Feb. 22, 2013 Rise Set
Actual Time 6:36 AM CST 5:33 PM CST
Civil Twilight 6:08 AM CST 6:01 PM CST
Nautical Twilight 5:35 AM CST 6:33 PM CST
Astronomical Twilight 5:03 AM CST 7:06 PM CST
Moon 2:42 PM CST (2/22) 4:23 AM CST (2/22)
Length of Visible Light 11h 53m
Length of Day
10h 57m
Waxing Gibbous, 90% of the Moon is Illuminated
Feb 22
Waxing Gibbous
Feb 25
Full
Mar 4
Last Quarter
Mar 11
New
Mar 19
First Quarter

Hourly Weather History & Observations

Time (CST) Temp. Windchill Dew Point Humidity Pressure Visibility Wind Dir Wind Speed Gust Speed Precip Events Conditions
12:23 AM 24.8 °F 10.7 °F 21.2 °F 86% 29.99 in 1.2 mi East 19.6 mph 25.3 mph 0.01 in Snow Light Snow
12:51 AM 25.0 °F 13.1 °F 21.0 °F 85% 30.01 in 1.0 mi East 13.8 mph 24.2 mph 0.02 in Snow Light Snow
12:53 AM 24.8 °F 12.4 °F 21.2 °F 86% 29.97 in 0.5 mi East 15.0 mph 24.2 mph 0.00 in Fog , Snow Light Snow
1:18 AM 24.8 °F 10.7 °F 21.2 °F 86% 29.95 in 0.8 mi East 19.6 mph 25.3 mph 0.01 in Snow Light Snow
1:51 AM 24.1 °F 11.5 °F 21.0 °F 88% 29.98 in 0.8 mi East 15.0 mph 23.0 mph 0.02 in Snow Light Snow
2:31 AM 24.8 °F 12.4 °F 21.2 °F 86% 29.91 in 1.2 mi East 15.0 mph 23.0 mph 0.01 in Snow Light Snow
2:51 AM 24.1 °F 11.5 °F 21.0 °F 88% 29.95 in 1.0 mi East 15.0 mph 21.9 mph 0.02 in Snow Light Snow
3:30 AM 24.8 °F 13.4 °F 21.2 °F 86% 29.89 in 1.0 mi East 12.7 mph - 0.00 in Snow Light Snow
3:51 AM 24.1 °F 12.5 °F 21.0 °F 88% 29.94 in 1.2 mi East 12.7 mph - 0.00 in Snow Light Snow
4:36 AM 24.8 °F 14.0 °F 21.2 °F 86% 29.87 in 1.2 mi East 11.5 mph - 0.00 in Snow Light Snow
4:51 AM 24.1 °F 14.4 °F 21.0 °F 88% 29.91 in 1.5 mi East 9.2 mph 19.6 mph 0.00 in Snow Light Snow
5:51 AM 25.0 °F 16.3 °F 21.0 °F 85% 29.90 in 1.5 mi East 8.1 mph - 0.00 in Snow Light Snow
6:22 AM 24.8 °F 16.1 °F 21.2 °F 86% 29.84 in 2.0 mi East 8.1 mph - 0.00 in Snow Light Snow
6:32 AM 24.8 °F 14.6 °F 21.2 °F 86% 29.84 in 3.0 mi ESE 10.4 mph - 0.00 in Snow Light Snow
6:51 AM 24.8 °F 14.0 °F 21.2 °F 86% 29.84 in 3.0 mi ESE 11.5 mph - N/A Snow Light Snow
7:42 AM 26.6 °F 18.2 °F 21.2 °F 80% 29.83 in 5.0 mi ESE 8.1 mph - 0.00 in Snow Light Snow
7:51 AM 26.1 °F 17.6 °F 21.9 °F 84% 29.87 in 5.0 mi ESE 8.1 mph - 0.00 in Snow Light Snow
8:51 AM 27.0 °F 18.7 °F 23.0 °F 85% 29.86 in 6.0 mi SE 8.1 mph - 0.00 in   Overcast
9:51 AM 28.4 °F 20.4 °F 24.8 °F 86% 29.83 in 4.0 mi SSE 8.1 mph - N/A   Overcast
10:33 AM 28.4 °F 22.2 °F 26.6 °F 93% 29.83 in 2.5 mi SSE 5.8 mph - 0.00 in Snow Light Snow
10:51 AM 28.9 °F 21.9 °F 27.0 °F 92% 29.87 in 1.5 mi SSE 6.9 mph - 0.00 in Snow Light Snow
11:17 AM 30.2 °F 21.9 °F 28.4 °F 93% 29.83 in 1.0 mi South 9.2 mph - 0.00 in Snow Light Freezing Drizzle
11:34 AM 30.2 °F 23.4 °F 28.4 °F 93% 29.83 in 1.0 mi South 6.9 mph - 0.00 in Snow Light Freezing Drizzle
11:51 AM 30.9 °F 26.2 °F 28.9 °F 92% 29.87 in 1.2 mi South 4.6 mph - 0.00 in Snow Light Freezing Drizzle
12:51 PM 33.1 °F 26.9 °F 30.0 °F 89% 29.85 in 2.5 mi SSW 6.9 mph - 0.00 in Snow Light Drizzle
1:04 PM 33.8 °F 26.4 °F 30.2 °F 87% 29.80 in 3.0 mi SSW 9.2 mph - 0.00 in   Light Drizzle
1:51 PM 34.0 °F 26.0 °F 30.0 °F 85% 29.85 in 6.0 mi SW 10.4 mph - 0.00 in Snow Light Snow
2:51 PM 35.1 °F 25.2 °F 28.9 °F 78% 29.85 in 9.0 mi SW 16.1 mph 21.9 mph 0.00 in   Overcast
3:51 PM 34.0 °F 23.8 °F 27.0 °F 75% 29.88 in 9.0 mi WSW 16.1 mph 21.9 mph 0.00 in Snow Light Snow
4:51 PM 32.0 °F 21.6 °F 24.1 °F 73% 29.90 in 9.0 mi WSW 15.0 mph 24.2 mph 0.00 in   Overcast
5:51 PM 30.9 °F 20.7 °F 23.0 °F 72% 29.92 in 9.0 mi WSW 13.8 mph 23.0 mph N/A   Overcast
6:51 PM 30.9 °F 21.7 °F 23.0 °F 72% 29.93 in 9.0 mi SW 11.5 mph - 0.00 in Snow Light Snow
7:51 PM 30.0 °F 18.7 °F 23.0 °F 75% 29.95 in 8.0 mi WSW 16.1 mph - 0.00 in Snow Light Snow
8:51 PM 30.0 °F 19.5 °F 23.0 °F 75% 29.95 in 8.0 mi WSW 13.8 mph - 0.00 in Snow Light Snow
9:51 PM 28.9 °F 17.7 °F 21.9 °F 75% 29.95 in 7.0 mi WSW 15.0 mph - 0.00 in Snow Light Snow
10:51 PM 28.9 °F 17.7 °F 21.9 °F 75% 29.95 in 7.0 mi WSW 15.0 mph 21.9 mph 0.00 in Snow Light Snow
11:51 PM 28.0 °F 17.5 °F 21.9 °F 78% 29.95 in 7.0 mi WSW 12.7 mph 20.7 mph 0.00 in Snow Light Snow